#timestamp,LO_Frequency,Hit,StdDev 
1609927215.1,286046999.8,N
1609927216.0,286046999.8,N
1609927235.8,286047000.4,N
1609927255.7,286047002.8,N
1609927275.5,286047002.4,N
1609927295.3,286046999.7,N
1609927315.2,286047000.6,N
1609927335.0,286047002.1,N
1609927335.9,286047002.1,N
1609927355.8,286047002.5,N
1609927375.6,286047002.3,N
1609927395.4,286047000.2,N
1609927415.3,286047000.6,N
1609927435.1,286047000.1,N
1609927455.8,286047001.5,N
1609927475.7,286047001.2,N
1609927495.5,286047000.5,N
1609927515.3,286046998.3,N
1609927535.2,286046998.8,N
1609927555.0,286046998.2,N
1609927555.9,286046998.2,N
1609927575.8,286046998.3,N
1609927595.6,286047002.8,N
1609927615.4,286047000.2,N
1609927635.3,286047000.3,N
1609927655.1,286047002.8,N
1609927675.9,286047000.7,N
1609927695.7,286046998.5,N
1609927715.5,286046999.5,N
1609927735.4,286046997.2,N
1609927755.2,286046997.8,N
1609927775.0,286046997.8,N
1609927775.9,286046997.8,N
1609927795.8,286046997.1,N
1609927815.6,286046999.0,N
1609927835.5,286047000.3,N
1609927855.3,286046998.8,N
1609927875.1,286046999.2,N
1609927895.9,286047000.0,N
1609927915.7,286047000.8,N
1609927935.5,286047001.2,N
1609927955.4,286046998.1,N
1609927975.2,286046999.5,N
1609927995.0,286047000.8,N
1609927996.0,286047000.8,N
1609928015.8,286047000.3,N
1609928035.6,286047001.1,N
1609928055.5,286047000.3,N
1609928075.3,286047000.8,N
1609928095.1,286047000.3,N
1609928115.9,286047000.7,N
1609928135.7,286047000.3,N
1609928155.5,286047001.2,N
1609928175.4,286047000.3,N
1609928195.2,286047002.3,N
1609928215.1,286046999.7,N
1609928216.0,286046999.7,N
1609928235.8,286047001.8,N
1609928255.6,286047002.1,N
1609928275.5,286047002.5,N
1609928295.3,286047002.5,N
1609928315.1,286047001.3,N
1609928335.9,286047003.7,N
1609928355.7,286047006.0,Y
1609928375.6,286047004.1,P
1609928395.4,286047001.9,N
1609928415.2,286047002.3,N
1609928435.1,286047002.8,N
1609928436.0,286047002.8,N
1609928455.8,286047001.8,N
1609928475.7,286047002.7,N
1609928495.5,286047003.2,Y
1609928515.3,286047002.8,P
1609928535.2,286047000.3,N
1609928555.0,286047000.6,N
1609928555.9,286047000.6,N
1609928575.7,286046999.1,N
1609928595.6,286046995.4,Y
1609928615.4,286046996.2,P
1609928635.3,286046997.8,N
1609928655.1,286046996.7,N
1609928675.8,286046996.6,N
1609928695.7,286046997.3,N
1609928715.5,286046997.7,N
1609928735.3,286046997.6,N
1609928755.2,286046996.9,N
1609928775.0,286046996.8,N
1609928775.9,286046996.8,N
1609928795.8,286046998.2,N
1609928815.6,286046996.7,N
1609928835.4,286046995.3,Y
1609928855.3,286046999.0,P
1609928875.1,286046998.3,N
1609928895.8,286046999.4,N
1609928915.7,286046998.8,N
1609928935.5,286046999.2,N
1609928955.4,286047000.7,N
1609928975.2,286047003.9,Y
1609928995.0,286046999.7,P
1609928995.9,286046999.7,N
1609929015.8,286046999.9,N
1609929035.6,286047002.8,Y
1609929055.5,286047002.5,P
1609929075.3,286047002.7,N
1609929095.1,286047002.6,N
1609929115.9,286047001.6,N
1609929135.7,286047001.5,N
1609929155.5,286047002.2,N
1609929175.4,286047002.8,N
1609929195.2,286047004.4,Y
1609929215.0,286046999.9,P
1609929216.0,286046999.9,N
1609929235.8,286046999.9,N
1609929255.6,286047001.1,N
1609929275.5,286046998.4,N
1609929295.3,286047000.3,N
1609929315.1,286047002.8,N
1609929335.9,286046999.9,N
1609929355.7,286047000.4,N
1609929375.6,286046998.2,N
1609929395.4,286047000.9,N
1609929415.2,286047000.7,N
1609929435.1,286047000.2,N
1609929436.0,286047000.2,N
1609929455.8,286046998.3,N
1609929475.6,286046998.6,N
1609929495.5,286046999.1,N
1609929515.3,286046998.9,N
1609929535.1,286046999.1,N
1609929555.9,286046999.0,N
1609929575.7,286047000.8,N
1609929595.6,286046998.1,N
1609929615.4,286046998.5,N
1609929635.2,286046998.6,N
1609929655.1,286047000.8,N
1609929656.0,286047000.8,N
1609929675.8,286046999.0,N
1609929695.7,286046998.8,N
1609929715.5,286046998.5,N
1609929735.3,286046998.5,N
1609929755.2,286046998.6,N
1609929775.0,286046999.6,N
1609929775.9,286046999.6,N
1609929795.8,286046996.7,N
1609929815.6,286046997.9,N
1609929835.4,286046997.1,N
1609929855.3,286046997.0,N
1609929875.1,286046997.1,N
1609929895.9,286046995.8,Y
1609929915.7,286046994.9,P
1609929935.5,286046995.8,N
1609929955.4,286046994.9,N
1609929975.2,286046997.6,N
1609929995.0,286046996.9,N
1609929995.9,286046996.9,N
1609930015.8,286046995.0,Y
1609930035.6,286047000.6,P
1609930055.5,286047001.2,N
1609930075.3,286046998.2,N
1609930095.1,286047000.8,N
1609930115.9,286047001.0,N
1609930135.7,286046998.2,N
1609930155.5,286046999.0,N
1609930175.4,286046997.9,N
1609930195.2,286046995.6,N
1609930215.1,286046995.3,N
1609930216.0,286046995.3,N
1609930235.8,286046997.2,N
1609930255.6,286046997.5,N
1609930275.5,286046995.8,N
1609930295.3,286046995.7,N
1609930315.1,286046993.9,N
1609930335.9,286046993.8,N
1609930355.7,286046994.0,N
1609930375.6,286046994.0,N
1609930395.4,286046994.7,N
1609930415.2,286046993.6,N
1609930435.1,286046994.5,N
1609930436.0,286046994.5,N
1609930455.8,286046993.7,N
1609930475.6,286046993.7,N
1609930495.5,286046996.0,N
1609930515.3,286046993.7,N
1609930535.2,286046993.4,N
1609930555.9,286046992.5,Y
1609930575.7,286046997.9,P
1609930595.6,286046997.5,N
1609930615.4,286046997.1,P
1609930635.3,286046997.7,Y
1609930655.1,286046998.3,P
1609930656.0,286046998.3,P
1609930675.8,286047001.2,N
1609930695.7,286046998.3,N
1609930715.5,286046998.1,N
1609930735.3,286046999.0,N
1609930755.2,286046998.6,N
1609930775.0,286046999.4,N
1609930775.9,286046999.4,N
1609930795.8,286046996.8,Y
